Fremont, MI

3:43 AM EST on November 14, 2019 (GMT -0500)
Fremont

Weather History for KFFX - September, 2019

Change the Weather History Date:

Friday, September 6, 2019

  Actual Average (WUND) Record (WUND)
Temperature  
Mean Temperature 62 °F -  
Max Temperature 68 °F - - (-1)
Min Temperature 56 °F - - (-1)
Degree Days  
Heating Degree Days 3    
Growing Degree Days 12 (Base 50)    
Moisture  
Dew Point 57 °F    
Average Humidity 88    
Maximum Humidity 94    
Minimum Humidity 73    
Precipitation  
Precipitation 0.00 in - - ()
Sea Level Pressure  
Sea Level Pressure 29.92 in    
Wind  
Wind Speed 4 mph ()    
Max Wind Speed 16 mph    
Max Gust Speed 25 mph    
Visibility 9.6 miles    
Events Rain    
Averages and records for this station are not official NWS values.
T = Trace of Precipitation, MM = Missing Value Source: Averaged Metar Reports

Daily Weather History Graph

Daily Weather History Graph

Search for Another Location

Airport or City:

Astronomy

Sep. 06, 2019 Rise Set
Actual Time 7:13 AM EDT 8:10 PM EDT
Civil Twilight 6:44 AM EDT 8:39 PM EDT
Nautical Twilight 6:09 AM EDT 9:14 PM EDT
Astronomical Twilight 5:32 AM EDT 9:50 PM EDT
Moon 3:34 PM EDT (9/6) 12:15 AM EDT (9/6)
Length of Visible Light 13h 55m
Length of Day
12h 57m
First Quarter, 55% of the Moon is Illuminated
Sep 6
First Quarter
Sep 14
Full
Sep 21
Last Quarter
Sep 28
New
Oct 5
First Quarter

Hourly Weather History & Observations

Time (EDT) Temp. Dew Point Humidity Pressure Visibility Wind Dir Wind Speed Gust Speed Precip Events Conditions
12:15 AM 58.1 °F 55.0 °F 90% 30.01 in 10.0 mi Calm Calm - N/A   Overcast
12:16 AM 57.9 °F 55.0 °F 90% 30.01 in 10.0 mi ESE 3.5 mph - N/A   Overcast
12:35 AM 57.0 °F 54.1 °F 90% 30.00 in 10.0 mi Calm Calm - N/A   Scattered Clouds
12:40 AM 56.7 °F 54.0 °F 91% 30.00 in 10.0 mi Calm Calm - N/A   Scattered Clouds
12:58 AM 56.5 °F 54.3 °F 92% 30.00 in 10.0 mi Calm Calm - N/A   Mostly Cloudy
1:16 AM 56.7 °F 54.0 °F 91% 30.00 in 10.0 mi Calm Calm - N/A   Mostly Cloudy
1:35 AM 57.2 °F 54.9 °F 92% 30.00 in 10.0 mi Calm Calm - N/A   Overcast
1:55 AM 57.2 °F 55.4 °F 94% 29.99 in 10.0 mi Calm Calm - N/A   Overcast
2:19 AM 57.4 °F 55.0 °F 92% 29.99 in 10.0 mi ESE 3.5 mph - N/A   Overcast
2:37 AM 57.6 °F 54.7 °F 90% 29.99 in 10.0 mi East 3.5 mph - N/A   Overcast
2:55 AM 57.7 °F 54.7 °F 90% 29.98 in 10.0 mi ESE 3.5 mph - N/A   Overcast
2:56 AM 57.7 °F 54.7 °F 90% 29.98 in 10.0 mi ESE 3.5 mph - N/A   Overcast
3:15 AM 57.6 °F 55.2 °F 92% 29.97 in 10.0 mi East 3.5 mph - N/A   Overcast
3:16 AM 57.6 °F 55.0 °F 91% 29.97 in 10.0 mi East 3.5 mph - N/A   Overcast
3:35 AM 57.6 °F 54.9 °F 91% 29.96 in 10.0 mi East 3.5 mph - N/A   Overcast
3:58 AM 57.7 °F 54.5 °F 89% 29.95 in 10.0 mi ESE 3.5 mph - N/A   Overcast
4:16 AM 57.7 °F 54.7 °F 90% 29.95 in 10.0 mi Calm Calm - N/A   Overcast
4:35 AM 57.7 °F 54.5 °F 89% 29.94 in 10.0 mi SE 4.6 mph - N/A   Overcast
4:36 AM 57.9 °F 54.5 °F 88% 29.94 in 10.0 mi SE 3.5 mph - N/A   Overcast
4:55 AM 57.7 °F 54.5 °F 89% 29.93 in 10.0 mi ESE 3.5 mph - N/A   Overcast
4:56 AM 57.7 °F 54.5 °F 89% 29.93 in 10.0 mi ESE 3.5 mph - N/A   Overcast
5:19 AM 57.7 °F 54.5 °F 89% 29.92 in 10.0 mi ESE 5.8 mph - N/A   Overcast
5:37 AM 58.1 °F 54.7 °F 88% 29.91 in 10.0 mi ESE 4.6 mph - N/A   Overcast
5:55 AM 58.1 °F 54.9 °F 89% 29.90 in 10.0 mi ESE 4.6 mph - N/A   Overcast
6:15 AM 58.1 °F 54.9 °F 89% 29.88 in 10.0 mi SE 6.9 mph - N/A   Overcast
6:35 AM 58.3 °F 54.9 °F 88% 29.89 in 10.0 mi SE 3.5 mph - N/A   Overcast
6:58 AM 58.3 °F 54.7 °F 88% 29.88 in 10.0 mi SE 3.5 mph - N/A   Overcast
7:16 AM 58.3 °F 55.4 °F 90% 29.88 in 10.0 mi ESE 3.5 mph - N/A   Light Drizzle
7:35 AM 58.5 °F 55.4 °F 90% 29.88 in 10.0 mi ESE 3.5 mph - N/A   Overcast
7:36 AM 58.5 °F 55.4 °F 90% 29.88 in 10.0 mi East 3.5 mph - N/A Rain Rain
7:55 AM 58.3 °F 55.9 °F 92% 29.87 in 10.0 mi SE 4.6 mph - N/A   Overcast
7:56 AM 58.3 °F 55.9 °F 92% 29.87 in 10.0 mi SE 4.6 mph - N/A   Overcast
8:19 AM 58.8 °F 56.1 °F 91% 29.87 in 10.0 mi SE 4.6 mph - N/A   Overcast
8:37 AM 59.0 °F 56.3 °F 91% 29.86 in 10.0 mi SE 4.6 mph - N/A   Overcast
8:55 AM 59.4 °F 56.3 °F 90% 29.87 in 10.0 mi Calm Calm - N/A   Overcast
9:15 AM 59.9 °F 57.0 °F 90% 29.86 in 10.0 mi South 4.6 mph - N/A   Overcast
9:16 AM 59.9 °F 57.0 °F 90% 29.86 in 10.0 mi South 4.6 mph - N/A   Overcast
9:35 AM 60.3 °F 57.0 °F 89% 29.86 in 10.0 mi South 3.5 mph - N/A   Overcast
9:40 AM 60.8 °F 57.2 °F 88% 29.86 in 10.0 mi South 3.5 mph - N/A   Overcast
9:58 AM 61.2 °F 57.9 °F 89% 29.86 in 10.0 mi Calm Calm - N/A   Overcast
10:16 AM 61.3 °F 58.1 °F 89% 29.87 in 10.0 mi East 4.6 mph - N/A   Overcast
10:45 AM 60.8 °F 59.0 °F 94% 29.86 in 10.0 mi East 5.8 mph - N/A   Overcast
11:05 AM 60.8 °F 57.2 °F 88% 29.85 in 10.0 mi East 6.9 mph - N/A   Overcast
11:25 AM 62.6 °F 59.0 °F 88% 29.85 in 10.0 mi ESE 5.8 mph - N/A   Overcast
11:45 AM 62.6 °F 59.0 °F 88% 29.85 in 10.0 mi SE 3.5 mph - N/A   Overcast
12:05 PM 62.6 °F 59.0 °F 88% 29.85 in 10.0 mi SSE 3.5 mph - N/A   Overcast
12:25 PM 62.6 °F 59.0 °F 88% 29.86 in 10.0 mi Calm Calm - N/A   Overcast
12:46 PM 64.4 °F 59.0 °F 83% 29.86 in 10.0 mi Calm Calm - N/A   Overcast
1:25 PM 62.6 °F 60.8 °F 94% 29.86 in 3.0 mi Calm Calm - N/A   Overcast
1:42 PM 63.5 °F 61.2 °F 92% 29.87 in 1.8 mi Calm Calm - N/A   Drizzle
1:56 PM 63.5 °F 61.5 °F 93% 29.87 in 3.0 mi Calm Calm - N/A   Light Drizzle
2:15 PM 63.7 °F 61.5 °F 93% 29.87 in 5.0 mi Calm Calm - N/A   Overcast
2:35 PM 64.6 °F 61.7 °F 90% 29.87 in 7.0 mi North 4.6 mph - N/A   Overcast
2:59 PM 65.3 °F 61.7 °F 88% 29.88 in 10.0 mi NNW 5.8 mph - N/A   Overcast
3:17 PM 65.8 °F 61.7 °F 86% 29.88 in 10.0 mi NNW 8.1 mph - N/A   Overcast
3:35 PM 65.8 °F 61.7 °F 86% 29.88 in 10.0 mi North 5.8 mph - N/A   Overcast
3:55 PM 67.3 °F 61.7 °F 82% 29.88 in 10.0 mi Calm Calm - N/A   Overcast
3:56 PM 67.3 °F 61.5 °F 82% 29.88 in 10.0 mi NNW 4.6 mph - N/A   Overcast
4:15 PM 68.0 °F 59.5 °F 74% 29.88 in 10.0 mi North 5.8 mph - N/A   Overcast
4:20 PM 68.4 °F 59.4 °F 73% 29.88 in 10.0 mi NNW 3.5 mph - N/A   Overcast
4:38 PM 68.5 °F 60.4 °F 75% 29.89 in 10.0 mi NW 8.1 mph - N/A   Overcast
4:56 PM 68.0 °F 60.6 °F 77% 29.89 in 10.0 mi NNW 6.9 mph - N/A   Overcast
5:15 PM 67.5 °F 59.4 °F 75% 29.89 in 10.0 mi NNW 11.5 mph - N/A   Overcast
5:35 PM 67.1 °F 60.8 °F 80% 29.91 in 10.0 mi NNW 10.4 mph - N/A   Overcast
5:59 PM 66.0 °F 61.7 °F 86% 29.92 in 10.0 mi NNW 10.4 mph - N/A   Overcast
6:17 PM 65.3 °F 61.9 °F 89% 29.92 in 10.0 mi NNW 9.2 mph - N/A   Overcast
6:35 PM 65.3 °F 61.5 °F 88% 29.93 in 10.0 mi NNW 9.2 mph - N/A   Overcast
6:55 PM 64.6 °F 61.2 °F 89% 29.93 in 7.0 mi North 11.5 mph 16.1 mph N/A   Overcast
7:38 PM 63.7 °F 61.2 °F 91% 29.94 in 5.0 mi North 13.8 mph 18.4 mph N/A Rain Rain
7:56 PM 63.1 °F 59.5 °F 88% 29.95 in 10.0 mi North 12.7 mph 18.4 mph N/A   Overcast
8:15 PM 63.0 °F 58.1 °F 84% 29.96 in 10.0 mi North 16.1 mph 24.2 mph N/A   Overcast
8:16 PM 62.8 °F 58.1 °F 85% 29.96 in 10.0 mi North 16.1 mph 25.3 mph N/A   Overcast
8:35 PM 62.6 °F 57.7 °F 84% 29.96 in 10.0 mi North 12.7 mph 19.6 mph N/A   Overcast
8:36 PM 62.6 °F 57.7 °F 84% 29.96 in 10.0 mi North 13.8 mph 19.6 mph N/A   Overcast
8:59 PM 62.4 °F 57.4 °F 84% 29.98 in 10.0 mi North 10.4 mph - N/A   Overcast
9:17 PM 62.2 °F 57.2 °F 84% 29.98 in 10.0 mi North 10.4 mph - N/A   Overcast
9:35 PM 62.1 °F 56.5 °F 82% 29.99 in 10.0 mi North 12.7 mph 18.4 mph N/A   Overcast
9:36 PM 62.1 °F 56.3 °F 81% 29.99 in 10.0 mi North 11.5 mph 18.4 mph N/A   Overcast
9:55 PM 61.2 °F 56.3 °F 84% 29.99 in 10.0 mi North 9.2 mph 16.1 mph N/A   Overcast
10:15 PM 60.3 °F 56.3 °F 87% 30.00 in 10.0 mi NNW 8.1 mph - N/A   Mostly Cloudy
10:20 PM 60.1 °F 56.3 °F 87% 30.00 in 10.0 mi North 8.1 mph - N/A   Mostly Cloudy
10:38 PM 60.4 °F 57.0 °F 88% 30.00 in 10.0 mi NNW 6.9 mph - N/A   Overcast
10:56 PM 60.8 °F 56.7 °F 86% 30.01 in 10.0 mi North 5.8 mph - N/A   Overcast
11:15 PM 61.0 °F 56.7 °F 86% 30.01 in 10.0 mi North 5.8 mph - N/A   Overcast
11:35 PM 60.8 °F 56.7 °F 86% 30.01 in 10.0 mi NNW 5.8 mph - N/A   Overcast
11:59 PM 60.8 °F 56.5 °F 86% 30.01 in 10.0 mi NNW 6.9 mph - N/A   Overcast